Regional Weather Roundup
Issued by NWS Kansas City/Pleasant Hill, MO

Home | Current Version | Previous Version | Text Only | Print | Product List | Glossary On
Versions: 1 2 3 4 5 6 7 8 9 10 11 12 13 14 15 16 17 18 19 20 21 22 23 24 25 26 27 28 29 30 31 32 33 34 35 36 37 38 39 40 41 42 43 44 45 46 47 48 49 50
182
ASUS43 KEAX 151710
RWREAX

WEATHER ROUNDUP FOR EASTERN KANSAS AND NORTHWEST MISSOURI
NATIONAL WEATHER SERVICE KANSAS CITY/PLEASANT HILL MO
1100 AM CST FRI DEC 15 2017

KSZ040-057-103>105-MOZ028-029-037-043-151800-
...KANSAS CITY METROPOLITAN AREA...

CITY           SKY/WX    TMP DP  RH WIND       PRES   REMARKS
K.C. INTL      SUNNY     40  24  53 SW12      30.14S WCI  33
K.C. DOWNTOWN  SUNNY     41  23  48 W6        30.16S
LEES SUMMIT    SUNNY     39  23  52 W7        30.16S WCI  34
OLATHE - IXD   SUNNY     40  26  57 W8        30.17S WCI  34
OLATHE - OJC   SUNNY     38  25  59 NW9       30.16S WCI  31
LAWRENCE       SUNNY     42  25  50 SW9       30.16F

$$

MOZ001>008-011>017-020>025-030>033-038>040-044>046-053-054-151800-
...NORTHERN AND CENTRAL MISSOURI...

CITY           SKY/WX    TMP DP  RH WIND       PRES   REMARKS
ST. JOSEPH     SUNNY     40  25  55 W14       30.13F WCI  32
MOSBY          SUNNY     41  21  45 W7        30.15S
WARRENSBURG    SUNNY     39  23  52 W10G16    30.16F WCI  32
WHITEMAN AFB   SUNNY     40  23  51 W12       30.12S WCI  33
CLINTON        PTSUNNY   39  28  65 W8        30.18S WCI  34
SEDALIA        SUNNY     41  24  51 NW13      30.16S WCI  34
WARSAW         NOT AVBL
CHILLICOTHE      N/A     42  20  41 SW9G18    30.11F
KIRKSVILLE     CLOUDY    38  27  64 SW10      30.06F WCI  31

$$

MOZ041-047>049-056>058-063>065-088>090-097-151800-
...EASTERN AND SOUTHERN MISSOURI...

CITY           SKY/WX    TMP DP  RH WIND       PRES   REMARKS
ST. LOUIS INTL PTSUNNY   38  25  59 NW12G22   30.12R WCI  30
SPIRIT OF STL  PTSUNNY   41  27  57 W10       30.11S WCI  35
COLUMBIA       SUNNY     41  22  46 W16       30.12F WCI  33
JEFFERSON CITY MOSUNNY   40  23  50 W14       30.15S WCI  32
ROLLA          MOSUNNY   39  26  59 NW13      30.13S WCI  31
OSAGE BEACH    MOSUNNY   41  26  55 NW8       30.17R
SPRINGFIELD    PTSUNNY   41  31  67 W12       30.16F WCI  34
BRANSON        MOSUNNY   39  28  65 W7        30.19S WCI  34
JOPLIN         MOSUNNY   41  33  73 W6        30.21F
WEST PLAINS    SUNNY     42  26  53 W6        30.15F

$$

IAZ060-094-KSZ022-034>040-054-083-096-NEZ052-066-093-151800-
...KANSAS...SOUTHEAST NEBRASKA AND IOWA...

CITY           SKY/WX    TMP DP  RH WIND       PRES   REMARKS
TOPEKA         SUNNY     40  27  59 SW8       30.17S WCI  34
MANHATTAN      SUNNY     40  25  55 SW10      30.15F WCI  33
EMPORIA        SUNNY     39  24  55 W8        30.18F WCI  33
CHANUTE        SUNNY     41  28  60 W10       30.22R WCI  35
WICHITA        SUNNY     42  30  62 SW10      30.20S
OMAHA          CLOUDY    39  24  55 SW14      30.02F WCI  31
LINCOLN        CLOUDY    39  27  62 SW17      30.03F WCI  30
FALLS CITY     SUNNY     41  21  44 W14       30.11S WCI  33
LAMONI         MOSUNNY   38  22  52 W22G29    30.03F WCI  27
DES MOINES     CLOUDY    39  24  55 W20       29.98F WCI  29

$$





USA.gov is the U.S. government's official web portal to all federal, state and local government web resources and services.